Flag for Germany Weather past 2 weeks in Koblenz, Rhineland-Palatinate, Germany

Now
73 °F

Broken clouds.


Feels Like: 76 °F
Forecast: 61 / 74 °F
Wind: 9 mph from South

Location: Buechel

Current Time: Jul 28, 2014 at 12:52:31 PM

Latest Report: Jul 28, 2014 at 12:20 PM


Visibility: N/A

Pressure: 29.89 "Hg

Humidity: 61%

Dew point: 59 °F

Location of KoblenzLocation

Historic Weather in Koblenz — Graph

°F

Koblenz temperature yesterday

Maximum temperature yesterday: 77 °F (at 3:20 PM)
Minimum temperature yesterday: 61 °F (at 3:20 AM)
Average temperature yesterday: 68 °F

Past Weeks' High & Low Weather Summary

 TemperatureHumidityPressure
High86 °F (Jul 18, 4:20 PM)100% (Jul 22, 1:20 AM)30.21 "Hg (Jul 22, 1:20 AM)
Low54 °F (Jul 14, 5:20 AM)29% (Jul 18, 5:20 PM)29.86 "Hg (Jul 14, 4:20 AM)
Average68 °F67%30.02 "Hg
* Reported Jul 14 4:20 AM — Jul 28 11:20 AM, Koblenz, Weather by CustomWeather, © 2014

Note: Actual official high and low records may vary slightly from our data, if they occured in-between our weather recording intervals... More about our weather records

Advertising

Koblenz weather history for previous 24 hours

 ConditionsComfort  
Time TempWeatherWind HumidityBarometerVisibility
11:20 AM
Jul 28
72 °FBroken clouds.7 mph69%29.89 "HgN/A
10:20 AM68 °FPartly sunny.7 mph78%29.92 "HgN/A
9:20 AM66 °FScattered clouds.8 mph83%29.92 "Hg5 mi
8:20 AM64 °FFog.7 mph83%29.92 "Hg4 mi
7:20 AM63 °FFog.5 mph88%29.92 "Hg4 mi
6:20 AM61 °FFog.6 mph88%29.92 "Hg4 mi
5:20 AM61 °FPassing clouds.7 mph88%29.92 "Hg4 mi
4:20 AM63 °FPassing clouds.5 mph88%29.95 "Hg4 mi
3:20 AM63 °FMild.5 mph88%29.98 "Hg2 mi
2:20 AM63 °FMild.5 mph94%29.98 "Hg4 mi
1:20 AM64 °FMild.2 mph88%30.01 "Hg4 mi
12:20 AM64 °FMild.5 mph83%30.01 "Hg6 mi
11:20 PM
Jul 27
66 °FMild.5 mph78%30.01 "Hg5 mi
10:20 PM68 °FMild.5 mph78%30.04 "Hg5 mi
9:20 PM68 °FMild.7 mph73%30.01 "HgN/A
8:20 PM70 °FMild.7 mph69%30.01 "HgN/A
7:20 PM73 °FMild.7 mph61%30.01 "HgN/A
6:20 PM73 °FMild.9 mph61%30.01 "HgN/A
5:20 PM72 °FMild.10 mph69%30.01 "HgN/A
4:20 PM75 °FMild.6 mph50%30.01 "HgN/A
3:20 PM77 °FWarm.7 mph47%30.04 "HgN/A
2:20 PM72 °FMild.5 mph57%30.04 "HgN/A
1:20 PM73 °FMild.6 mph53%30.04 "HgN/A
12:20 PM70 °FMild.6 mph64%30.04 "HgN/A
Weather by CustomWeather, © 2014

See weather overviewHow to use our weather pages